time_stamp(utc),avg(mph),gust(mph),direction(deg),12m_air_temp(f),sonic_u(cm/s),sonic_v(cm/s),sonic_w(cm/s),pressure,2m_air_temp(f),pyranometer(W/m^2)
"2021-03-01 00:02:39+00",8.2,10.2,,44,341,158,21,1016.46,43.5,0
"2021-03-01 00:07:39+00",8.6,10.6,,44.1,354,153,20,1016.12,43.6,0
"2021-03-01 00:12:39+00",10.2,11.2,,44.2,374,256,24,1015.84,43.7,0
"2021-03-01 00:17:39+00",8.3,9.3,,44.2,332,159,6,1015.82,43.8,0
"2021-03-01 00:22:39+00",8.6,9.6,,44.1,363,122,20,1015.6,43.7,0
"2021-03-01 00:27:39+00",9.4,12.4,,44.2,405,162,44,1015.55,43.7,0
"2021-03-01 00:32:39+00",8.3,9.3,,44.2,360,54,43,1015.45,43.8,0
"2021-03-01 00:37:39+00",8.7,9.7,,44.2,382,61,28,1015.41,43.8,0
"2021-03-01 00:42:39+00",7.1,9.1,,44.1,298,112,26,1015.32,43.7,0
"2021-03-01 00:47:39+00",8.4,9.4,,44.1,365,74,24,1015.11,43.7,0
"2021-03-01 00:52:39+00",8.6,10.6,,44.3,386,63,23,1015.11,43.7,0
"2021-03-01 00:57:39+00",6.3,8.3,,44.5,269,34,12,1015.12,43.8,0
"2021-03-01 01:02:39+00",4.8,5.8,,44.6,133,149,3,1015.19,44,0
"2021-03-01 01:07:39+00",3.9,4.9,,44.6,17,162,-5,1015.24,44.1,0
"2021-03-01 01:12:39+00",5.1,6.1,,44.6,0,217,-1,1015.04,44.1,0
"2021-03-01 01:17:39+00",4.2,7.2,,44.9,125,100,9,1014.86,44.3,0
"2021-03-01 01:22:39+00",6.4,8.4,,45.3,271,20,8,1014.72,44.5,0
"2021-03-01 01:27:39+00",9.2,10.2,,45.1,405,38,34,1014.39,44.6,0
"2021-03-01 01:32:39+00",8.0,9.0,,45.1,349,58,27,1014.21,44.5,0
"2021-03-01 01:37:39+00",10.2,12.2,,45.4,461,-6,49,1014.07,44.5,0
"2021-03-01 01:42:39+00",7.0,9.0,,45.4,310,-13,16,1014.09,44.6,0
"2021-03-01 01:47:39+00",10.1,14.1,,45.8,411,-231,12,1014.02,45,0
"2021-03-01 01:52:39+00",12.2,13.2,,45.7,490,-232,17,1013.83,45.1,0
"2021-03-01 01:57:39+00",12.1,13.1,,45.7,476,-253,16,1013.67,45.1,0
"2021-03-01 02:02:39+00",12.3,14.3,,45.7,482,-252,26,1013.53,45.1,0
"2021-03-01 02:07:39+00",13.4,15.4,,45.7,503,-310,7,1013.4,45.1,0
"2021-03-01 02:12:39+00",10.2,11.2,,45.6,363,-263,13,1013.5,45.1,0
"2021-03-01 02:17:39+00",7.3,8.3,,45.5,250,-195,-2,1013.5,45,0
"2021-03-01 02:22:39+00",6.6,8.6,,45.5,202,-202,-2,1013.33,45,0
"2021-03-01 02:27:39+00",7.0,8.0,,45.2,200,-230,-7,1013.1,44.8,0
"2021-03-01 02:32:39+00",7.1,8.1,,45.1,201,-220,11,1012.85,44.7,0
"2021-03-01 02:37:39+00",4.8,5.8,,44.9,152,-121,5,1012.72,44.5,0
"2021-03-01 02:42:39+00",2.7,3.7,,44.8,54,-93,4,1012.8,44.5,0
"2021-03-01 02:47:39+00",1.3,2.3,,44.8,-14,23,13,1012.72,44.5,0
"2021-03-01 02:52:39+00",1.7,2.7,,44.8,56,-2,27,1012.74,44.5,0
"2021-03-01 02:57:39+00",2.0,2.0,,44.9,-59,-35,14,1012.65,44.6,0
"2021-03-01 03:02:39+00",4.1,6.1,,45.1,66,-153,-33,1012.44,44.7,0
"2021-03-01 03:07:39+00",3.4,4.4,,45.2,16,-126,0,1012.5,44.8,0
"2021-03-01 03:12:39+00",2.5,3.5,,45.4,6,-96,2,1012.46,44.8,0
"2021-03-01 03:17:39+00",2.5,2.5,,45.4,9,-86,3,1012.27,44.9,0
"2021-03-01 03:22:39+00",4.7,4.7,,45.4,66,-178,-8,1012.22,45,0
"2021-03-01 03:27:39+00",2.8,3.8,,45.3,25,-95,10,1012.14,45,0
"2021-03-01 03:32:39+00",3.5,4.5,,45.4,-136,-39,-14,1012.14,45,0
"2021-03-01 03:37:39+00",1.9,2.9,,45.4,16,-69,0,1011.98,45,0
"2021-03-01 03:42:39+00",1.3,2.3,,45.6,-33,-24,-2,1012.02,45.1,0
"2021-03-01 03:47:39+00",1.1,1.1,,45.6,-29,6,19,1011.83,45.1,0
"2021-03-01 03:52:39+00",1.2,1.2,,45.6,14,-31,-18,1011.81,45.1,0
"2021-03-01 03:57:39+00",1.9,2.9,,45.7,-62,38,8,1011.96,45.1,0
"2021-03-01 04:02:39+00",1.3,2.3,,45.7,-42,-18,1,1011.84,45.1,0
"2021-03-01 04:07:39+00",3.9,3.9,,45.6,-34,-151,-6,1011.64,45.1,0
"2021-03-01 04:12:39+00",4.2,5.2,,45.6,-64,-164,-1,1011.53,45,0
"2021-03-01 04:17:39+00",3.4,4.4,,45.6,-24,-140,-9,1011.21,45,0
"2021-03-01 04:22:39+00",3.3,4.3,,45.5,-12,-123,-4,1011.14,45.1,0
"2021-03-01 04:27:39+00",3.1,5.1,,45.5,-12,-118,-10,1010.95,45.1,0
"2021-03-01 04:32:39+00",3.1,4.1,,45.5,-14,-121,-4,1010.88,45.1,0
"2021-03-01 04:37:39+00",2.6,3.6,,45.5,-17,-100,-4,1010.84,45.1,0
"2021-03-01 04:42:39+00",3.1,3.1,,45.4,-30,-120,-3,1010.85,45.1,0
"2021-03-01 04:47:39+00",3.3,4.3,,45.4,28,-129,-2,1010.48,45,0
"2021-03-01 04:52:39+00",4.7,5.7,,45.4,-35,-183,-13,1010.54,44.9,0
"2021-03-01 04:57:39+00",4.0,5.0,,45.3,-90,-142,-2,1010.58,44.9,0
"2021-03-01 05:02:39+00",3.4,4.4,,45.3,-113,-85,-2,1010.45,44.8,0
"2021-03-01 05:07:39+00",4.8,5.8,,45.2,-175,-125,5,1010.56,44.8,0
"2021-03-01 05:12:39+00",5.7,5.7,,45.2,-228,-106,0,1010.7,44.7,0
"2021-03-01 05:17:39+00",6.3,7.3,,45.2,-252,-94,0,1010.62,44.7,0
"2021-03-01 05:22:39+00",7.8,8.8,,45.4,-256,-221,-3,1010.42,44.5,0
"2021-03-01 05:27:39+00",8.0,9.0,,45.5,-249,-239,-5,1010.31,44.7,0
"2021-03-01 05:32:39+00",8.4,9.4,,45.6,-311,-222,-3,1010.24,44.8,0
"2021-03-01 05:37:39+00",7.4,8.4,,45.8,-306,-145,-8,1010.08,44.8,0
"2021-03-01 05:42:39+00",7.7,8.7,,45.7,-267,-210,3,1010.06,44.9,0
"2021-03-01 05:47:39+00",7.7,9.7,,45.6,-319,-174,-3,1010.06,45,0
"2021-03-01 05:52:39+00",7.9,8.9,,45.6,-306,-211,-1,1009.97,45,0
"2021-03-01 05:57:39+00",7.4,8.4,,45.6,-275,-193,4,1009.88,44.9,0
"2021-03-01 06:02:39+00",6.1,7.1,,45.6,-244,-111,3,1009.73,45,0
"2021-03-01 06:07:39+00",5.9,6.9,,45.7,-233,-104,4,1009.66,45,0
"2021-03-01 06:12:39+00",5.9,6.9,,45.7,-234,-104,3,1009.56,45,0
"2021-03-01 06:17:39+00",5.6,6.6,,45.7,-225,-75,2,1009.66,45,0
"2021-03-01 06:22:39+00",5.0,6.0,,45.9,-210,-28,0,1009.44,45,0
"2021-03-01 06:27:39+00",3.3,4.3,,45.9,-130,-21,-2,1009.31,45,0
"2021-03-01 06:32:39+00",4.1,5.1,,46,-167,-30,-5,1009.16,45.1,0
"2021-03-01 06:37:39+00",3.1,3.1,,45.9,-127,17,0,1009.06,45.1,0
"2021-03-01 06:42:39+00",2.9,2.9,,46.1,-122,7,0,1008.98,45.1,0
"2021-03-01 06:47:39+00",2.5,2.5,,46,-72,-69,4,1008.8,45.1,0
"2021-03-01 06:52:39+00",2.6,2.6,,46.3,-10,-98,-2,1008.71,45.2,0
"2021-03-01 06:57:39+00",4.4,4.4,,46.4,-33,-173,-2,1008.91,45.5,0
"2021-03-01 07:02:39+00",2.2,2.2,,46.6,-84,-16,-3,1008.68,45.6,0
"2021-03-01 07:07:39+00",1.6,1.6,,46.6,-46,39,-1,1008.38,45.7,0
"2021-03-01 07:12:39+00",0.0,0.0,,46.7,-13,-3,0,1008.26,45.7,0
"2021-03-01 07:17:39+00",1.3,1.3,,46.7,-50,-28,-1,1008.3,45.7,0
"2021-03-01 07:22:39+00",3.7,4.7,,46.8,-51,-150,1,1008.39,45.8,0
"2021-03-01 07:27:39+00",3.9,3.9,,46.7,-59,-151,-6,1008.17,46,0
"2021-03-01 07:32:39+00",5.1,6.1,,46.4,-150,-148,3,1008.34,45.9,0
"2021-03-01 07:37:39+00",3.4,3.4,,46.6,-137,-21,-1,1007.99,45.8,0
"2021-03-01 07:42:39+00",3.3,4.3,,46.5,-142,29,3,1007.83,45.7,0
"2021-03-01 07:47:39+00",3.2,3.2,,46.4,-96,-86,4,1007.91,45.7,0
"2021-03-01 07:52:39+00",2.4,2.4,,46.7,-98,-54,0,1007.72,45.8,0
"2021-03-01 07:57:39+00",2.4,2.4,,46.8,-87,-55,1,1007.56,45.9,0
"2021-03-01 08:02:39+00",0.8,1.8,,46.9,-35,12,-2,1007.19,45.9,0
"2021-03-01 08:07:39+00",1.8,1.8,,47.3,-58,37,-1,1007.16,45.9,0
"2021-03-01 08:12:39+00",3.1,3.1,,47.4,-128,-8,-2,1007.22,46,0
"2021-03-01 08:17:39+00",3.8,3.8,,47.4,-158,-22,2,1007.25,46,0
"2021-03-01 08:22:39+00",2.6,2.6,,47.4,-107,7,-4,1006.89,46.1,0
"2021-03-01 08:27:39+00",2.3,3.3,,47.3,-85,-42,-2,1006.75,46.3,0
"2021-03-01 08:32:39+00",2.3,3.3,,47.3,-62,-69,2,1006.56,46.5,0
"2021-03-01 08:37:39+00",4.2,5.2,,47.4,-39,-168,0,1006.58,46.6,0
"2021-03-01 08:42:39+00",4.4,5.4,,46.8,22,-186,-7,1006.66,46.3,0
"2021-03-01 08:47:39+00",3.4,4.4,,46.1,-7,-136,-7,1006.57,45.7,0
"2021-03-01 08:52:39+00",2.9,3.9,,46.3,-31,-118,-5,1006.67,45.6,0
"2021-03-01 08:57:39+00",4.6,5.6,,46.2,34,-191,-3,1006.48,45.6,0
"2021-03-01 09:02:39+00",5.4,6.4,,46.6,-20,-218,1,1006.5,45.3,0
"2021-03-01 09:07:39+00",4.6,5.6,,45.8,-22,-193,-12,1006.49,45.3,0
"2021-03-01 09:12:39+00",8.0,9.0,,46.5,-28,-332,-8,1006.29,45.2,0
"2021-03-01 09:17:39+00",5.3,6.3,,46.4,-43,-213,-2,1006.36,45.3,0
"2021-03-01 09:22:39+00",5.9,5.9,,46.2,-132,-222,0,1006.43,45.5,0
"2021-03-01 09:27:39+00",4.2,5.2,,46.1,-125,-117,4,1006.51,45.5,0
"2021-03-01 09:32:39+00",4.4,5.4,,46,-121,-150,-2,1006.46,45.5,0
"2021-03-01 09:37:39+00",3.6,4.6,,45.8,-84,-139,1,1006.28,45.4,0
"2021-03-01 09:42:39+00",4.4,5.4,,45.6,-95,-164,-2,1006.19,45.3,0
"2021-03-01 09:47:39+00",5.5,6.5,,45.7,-150,-199,-1,1006.22,45.2,0
"2021-03-01 09:52:39+00",4.9,5.9,,45.9,-142,-175,1,1006.26,45.2,0
"2021-03-01 09:57:39+00",4.2,5.2,,45.8,-147,-108,2,1006.37,45.2,0
"2021-03-01 10:02:39+00",4.8,4.8,,45.8,-143,-148,2,1006.39,45.2,0
"2021-03-01 10:07:39+00",6.0,7.0,,45.8,-96,-236,-8,1006.36,45.1,0
"2021-03-01 10:12:39+00",6.5,7.5,,45.7,-218,-181,6,1006.53,45.1,0
"2021-03-01 10:17:39+00",6.4,7.4,,45.8,-207,-180,3,1006.59,45.1,0
"2021-03-01 10:22:39+00",6.4,7.4,,45.9,-185,-202,5,1006.51,45.2,0
"2021-03-01 10:27:39+00",5.6,6.6,,45.9,-162,-177,2,1006.36,45.2,0
"2021-03-01 10:32:39+00",5.6,6.6,,45.9,-212,-147,12,1006.32,45.2,0
"2021-03-01 10:37:39+00",5.6,6.6,,45.9,-204,-147,6,1006.19,45.3,0
"2021-03-01 10:42:39+00",3.2,4.2,,45.8,-128,-13,-3,1005.85,45.3,0
"2021-03-01 10:47:39+00",5.6,6.6,,45.9,-230,-60,11,1005.95,45.3,0
"2021-03-01 10:52:39+00",5.8,5.8,,45.6,-258,0,-1,1006.19,45.1,0
"2021-03-01 10:57:39+00",4.7,4.7,,45.7,-184,-60,4,1006.11,45,0
"2021-03-01 11:02:39+00",5.3,6.3,,45.9,-224,-31,9,1006.15,45.1,0
"2021-03-01 11:07:39+00",5.3,6.3,,46.2,-231,16,12,1006.06,45.1,0
"2021-03-01 11:12:39+00",5.2,6.2,,46.5,-219,34,-5,1005.99,45.2,0
"2021-03-01 11:17:39+00",5.2,5.2,,46.4,-207,86,6,1005.97,45.4,0
"2021-03-01 11:22:39+00",5.7,6.7,,46.3,-246,61,4,1006.01,45.4,0
"2021-03-01 11:27:39+00",6.1,6.1,,46.2,-270,59,3,1006.02,45.4,0
"2021-03-01 11:32:39+00",5.2,5.2,,46.3,-221,58,2,1005.82,45.3,0
"2021-03-01 11:37:39+00",5.9,6.9,,46.4,-241,91,-1,1005.73,45.4,0
"2021-03-01 11:42:39+00",6.4,7.4,,46.5,-269,84,3,1005.77,45.3,0
"2021-03-01 11:47:39+00",7.8,8.8,,46.5,-335,100,8,1005.92,45.2,0
"2021-03-01 11:52:39+00",8.1,9.1,,46.5,-342,126,5,1005.91,45.2,0
"2021-03-01 11:57:39+00",9.2,10.2,,46.5,-397,107,10,1006.17,45.3,0
"2021-03-01 12:02:39+00",9.7,10.7,,46.4,-412,151,14,1006.13,45.3,0
"2021-03-01 12:07:39+00",9.8,10.8,,46.4,-409,177,8,1006.03,45.5,0
"2021-03-01 12:12:39+00",9.6,10.6,,46.4,-392,157,11,1006,45.7,0
"2021-03-01 12:17:39+00",9.1,10.1,,46.4,-381,151,11,1005.88,45.7,0
"2021-03-01 12:22:39+00",9.0,10.0,,46.4,-370,170,15,1005.69,45.7,0
"2021-03-01 12:27:39+00",7.1,8.1,,46.4,-294,130,6,1005.34,45.7,0
"2021-03-01 12:32:39+00",7.0,8.0,,46.3,-284,123,14,1005.26,45.7,0
"2021-03-01 12:37:39+00",7.4,8.4,,46.3,-309,134,9,1005.33,45.8,0
"2021-03-01 12:42:39+00",8.1,9.1,,46.3,-339,134,11,1005.34,45.8,0
"2021-03-01 12:47:39+00",7.7,8.7,,46.3,-315,149,11,1005.25,45.7,0
"2021-03-01 12:52:39+00",7.8,8.8,,46.3,-331,117,12,1005.3,45.7,0
"2021-03-01 12:57:39+00",7.3,8.3,,46.3,-321,67,7,1005.24,45.6,0
"2021-03-01 13:02:39+00",7.2,8.2,,46.2,-315,83,4,1005.23,45.5,0
"2021-03-01 13:07:39+00",7.1,7.1,,46.1,-308,66,10,1005.18,45.4,0
"2021-03-01 13:12:39+00",6.5,7.5,,46.1,-285,36,7,1005.06,45.3,0
"2021-03-01 13:17:39+00",6.8,7.8,,46.1,-299,30,4,1004.94,45.3,0
"2021-03-01 13:22:39+00",5.7,6.7,,46.1,-246,-3,-1,1004.6,45.5,0
"2021-03-01 13:27:39+00",6.0,7.0,,46.3,-266,17,-3,1004.77,45.6,0
"2021-03-01 13:32:39+00",5.5,6.5,,46.4,-230,-36,9,1004.85,45.7,0
"2021-03-01 13:37:39+00",5.4,6.4,,46.4,-221,-61,6,1005.1,45.8,0
"2021-03-01 13:42:39+00",5.6,6.6,,46.3,-225,-68,5,1005.08,46,0
"2021-03-01 13:47:39+00",7.3,8.3,,46.3,-302,-82,11,1005.2,46,0
"2021-03-01 13:52:39+00",6.5,7.5,,46.1,-265,-86,9,1005.23,46.1,0
"2021-03-01 13:57:39+00",7.9,8.9,,46.1,-323,-93,16,1005.18,46.1,0
"2021-03-01 14:02:39+00",7.5,8.5,,46.4,-300,-98,7,1004.98,46.1,0
"2021-03-01 14:07:39+00",7.0,8.0,,46.3,-278,-89,11,1004.88,46.1,0
"2021-03-01 14:12:39+00",8.7,9.7,,46,-355,-121,9,1005.09,46.1,0
"2021-03-01 14:17:39+00",7.1,8.1,,45.9,-288,-145,8,1004.86,46.1,0
"2021-03-01 14:22:39+00",6.7,7.7,,46,-281,-143,10,1004.77,45.9,0
"2021-03-01 14:27:39+00",6.6,7.6,,46.1,-210,-182,16,1004.6,45.9,0
"2021-03-01 14:32:39+00",6.1,6.1,,45.9,-213,-165,-1,1004.4,45.8,0
"2021-03-01 14:37:39+00",6.8,7.8,,45.9,-217,-199,5,1004.44,45.7,0
"2021-03-01 14:42:39+00",7.4,8.4,,45.9,-219,-228,1,1004.28,45.6,0
"2021-03-01 14:47:39+00",8.2,9.2,,46.3,-236,-262,8,1004.24,45.7,0
"2021-03-01 14:52:39+00",10.2,11.2,,46.4,-298,-322,0,1004.25,45.8,0
"2021-03-01 14:57:39+00",9.8,10.8,,46.3,-256,-368,-1,1003.97,45.9,0
"2021-03-01 15:02:39+00",9.9,10.9,,46.3,-278,-352,10,1003.78,45.8,0
"2021-03-01 15:07:39+00",10.2,11.2,,46.1,-293,-354,5,1003.82,45.7,0
"2021-03-01 15:12:39+00",9.9,10.9,,45.9,-275,-350,4,1003.86,45.5,0
"2021-03-01 15:17:39+00",10.9,11.9,,45.7,-352,-316,4,1004.01,45.3,0
"2021-03-01 15:22:39+00",10.8,11.8,,45.6,-310,-371,2,1003.93,45.3,0
"2021-03-01 15:27:39+00",9.9,10.9,,45.5,-231,-376,0,1003.74,45.3,0
"2021-03-01 15:32:39+00",10.1,12.1,,45.4,-264,-361,15,1003.73,45.3,0
"2021-03-01 15:37:39+00",10.9,12.9,,45.4,-242,-423,2,1003.62,45.3,0
"2021-03-01 15:42:39+00",12.0,15.0,,45.5,-358,-393,7,1003.92,45.3,0
"2021-03-01 15:47:39+00",11.1,12.1,,45.7,-461,-218,13,1004.28,45.4,0
"2021-03-01 15:52:39+00",9.0,10.0,,45.4,-339,-238,9,1004.04,45.4,0
"2021-03-01 15:57:39+00",8.0,9.0,,45.4,-329,-195,11,1003.93,45.3,0
"2021-03-01 16:02:39+00",10.9,11.9,,45.5,-452,-127,8,1004.41,45.4,0
"2021-03-01 16:07:39+00",10.5,11.5,,46.4,-418,-154,10,1004.46,45.6,0
"2021-03-01 16:12:39+00",10.8,11.8,,46.8,-442,-194,-3,1004.43,46,0
"2021-03-01 16:17:39+00",10.8,11.8,,47.1,-463,-230,9,1004.55,46.3,0
"2021-03-01 16:22:39+00",9.8,10.8,,47.2,-400,-197,12,1004.32,46.6,0
"2021-03-01 16:27:39+00",9.0,11.0,,46.9,-396,-49,6,1004.52,46.6,0
"2021-03-01 16:32:39+00",11.9,13.9,,47.4,-503,213,18,1004.74,46.8,0
"2021-03-01 16:37:39+00",14.8,16.8,,47.3,-598,313,23,1005,46.7,0
"2021-03-01 16:42:39+00",14.1,16.1,,47.9,-578,252,26,1004.49,47,0
"2021-03-01 16:47:39+00",9.3,10.3,,48,-415,22,17,1003.7,47.2,0
"2021-03-01 16:52:39+00",18.3,20.3,,47.8,-748,347,35,1004.62,47.2,0
"2021-03-01 16:57:39+00",23.4,26.4,,47.7,-881,549,54,1004.98,46.9,0
"2021-03-01 17:02:39+00",22.0,26.0,,47.7,-866,500,62,1004.66,46.8,0
"2021-03-01 17:07:39+00",21.4,24.4,,47.3,-873,401,44,1004.45,46.5,0
"2021-03-01 17:12:39+00",19.1,21.1,,47.1,-775,359,49,1004.14,46.3,0
"2021-03-01 17:17:39+00",18.5,21.5,,46.9,-765,355,27,1004.19,46.1,0
"2021-03-01 17:22:39+00",19.8,22.8,,46.8,-824,361,44,1004.64,46.1,0
"2021-03-01 17:27:39+00",20.3,23.3,,46.8,-811,404,45,1004.83,46,0
"2021-03-01 17:32:39+00",18.5,20.5,,46.7,-750,397,49,1004.73,46,0
"2021-03-01 17:37:39+00",16.9,23.9,,46.7,-698,329,6,1004.14,45.9,0
"2021-03-01 17:42:39+00",17.9,20.9,,46.8,-752,317,33,1004.23,45.9,0
"2021-03-01 17:47:39+00",19.6,22.6,,46.6,-799,358,36,1004.56,45.8,0
"2021-03-01 17:52:39+00",19.2,23.2,,46.7,-774,381,50,1004.37,45.7,0
"2021-03-01 17:57:39+00",19.8,22.8,,46.6,-771,445,33,1004.13,45.7,0
"2021-03-01 18:02:39+00",23.9,26.9,,47.1,-982,536,30,1004.43,45.7,0
"2021-03-01 18:07:39+00",21.2,23.2,,47,-817,475,42,1004.22,45.6,0
"2021-03-01 18:12:39+00",21.2,25.2,,46.8,-827,490,63,1004.22,45.7,0
"2021-03-01 18:17:39+00",22.4,26.4,,47,-880,515,54,1004.27,45.8,0
"2021-03-01 18:22:39+00",21.5,23.5,,47,-827,478,46,1004,46,0
"2021-03-01 18:27:39+00",18.4,20.4,,47,-742,383,51,1003.9,46.1,0
"2021-03-01 18:32:39+00",16.2,18.2,,46.8,-624,359,42,1003.69,46.2,0
"2021-03-01 18:37:39+00",10.9,12.9,,46.8,-436,219,44,1003.23,46.3,0
"2021-03-01 18:42:39+00",16.2,18.2,,46.8,-673,286,23,1004.01,46.4,0
"2021-03-01 18:47:39+00",13.7,15.7,,46.5,-586,175,49,1003.76,46.4,0
"2021-03-01 18:52:39+00",16.1,18.1,,46.4,-693,245,51,1004.29,46.3,0
"2021-03-01 18:57:39+00",16.5,18.5,,46.6,-709,252,24,1004.29,46.3,0
"2021-03-01 19:02:39+00",17.0,21.0,,46.7,-729,241,51,1004.04,46.3,0
"2021-03-01 19:07:39+00",16.1,18.1,,46.7,-687,267,27,1004.13,46.3,0
"2021-03-01 19:12:39+00",17.4,20.4,,46.8,-714,325,25,1003.85,46.4,0
"2021-03-01 19:17:39+00",16.5,18.5,,46.8,-689,313,28,1003.81,46.5,0
"2021-03-01 19:22:39+00",17.3,20.3,,46.9,-696,347,38,1003.92,46.7,0
"2021-03-01 19:27:39+00",19.8,22.8,,47.1,-790,370,46,1004.18,46.9,0
"2021-03-01 19:32:39+00",15.0,18.0,,47.1,-540,375,43,1003.49,46.9,0
"2021-03-01 19:37:39+00",15.3,17.3,,47.1,-641,257,34,1003.74,47,0
"2021-03-01 19:42:39+00",14.4,15.4,,47.1,-579,317,20,1003.59,47,0
"2021-03-01 19:47:39+00",15.9,18.9,,47.2,-615,372,43,1003.87,46.9,0
"2021-03-01 19:52:39+00",17.2,21.2,,47.4,-688,305,45,1003.98,46.9,0
"2021-03-01 19:57:39+00",15.3,17.3,,47.1,-608,326,28,1004.09,46.8,0
"2021-03-01 20:02:39+00",17.3,20.3,,47,-729,270,27,1004.63,46.8,0
"2021-03-01 20:07:39+00",20.4,23.4,,47,-865,362,34,1004.81,46.7,0
"2021-03-01 20:12:39+00",19.3,22.3,,47,-803,359,37,1005.02,46.7,0
"2021-03-01 20:17:39+00",20.7,22.7,,47.1,-843,418,28,1004.91,46.7,0
"2021-03-01 20:22:39+00",18.5,22.5,,47.2,-782,270,33,1005.28,46.9,0
"2021-03-01 20:27:39+00",22.6,24.6,,47.2,-956,418,39,1005.6,46.9,0
"2021-03-01 20:32:39+00",24.0,27.0,,47.3,-979,475,53,1005.91,46.9,0
"2021-03-01 20:37:39+00",24.3,30.3,,47.2,-1042,450,61,1005.97,46.8,0
"2021-03-01 20:42:39+00",29.1,34.1,,47.3,-1147,613,78,1006.03,46.7,0
"2021-03-01 20:47:39+00",29.0,33.0,,47.2,-1118,649,66,1005.98,46.5,0
"2021-03-01 20:52:39+00",27.4,32.4,,47.3,-1070,639,16,1005.78,46.5,0
"2021-03-01 20:57:39+00",29.7,32.7,,47.1,-1103,751,61,1005.77,46.4,0
"2021-03-01 21:02:39+00",26.3,30.3,,46.9,-988,676,53,1005.93,46.3,0
"2021-03-01 21:07:39+00",26.5,31.5,,46.8,-1027,682,42,1006.2,46.1,0
"2021-03-01 21:12:39+00",23.9,29.9,,46.7,-919,607,75,1006.35,46.1,0
"2021-03-01 21:17:39+00",23.3,26.3,,46.7,-893,597,57,1006.61,46,0
"2021-03-01 21:22:39+00",18.4,20.4,,46.3,-699,438,46,1006.67,45.9,0
"2021-03-01 21:27:39+00",17.9,19.9,,46.3,-706,383,31,1006.53,45.7,0
"2021-03-01 21:32:39+00",27.7,31.7,,46.5,-1059,662,65,1006.7,45.7,0
"2021-03-01 21:37:39+00",27.2,30.2,,46.6,-1035,680,74,1006.72,45.8,0
"2021-03-01 21:42:39+00",23.5,27.5,,46.3,-901,562,53,1006.61,45.7,0
"2021-03-01 21:47:39+00",26.4,29.4,,46.3,-1080,516,43,1006.73,45.5,0
"2021-03-01 21:52:39+00",28.2,32.2,,46.3,-1093,614,90,1006.87,45.4,0
"2021-03-01 21:57:39+00",24.8,27.8,,46,-981,527,51,1006.69,45.3,0
"2021-03-01 22:02:39+00",22.8,25.8,,45.8,-907,527,59,1006.72,45.2,0
"2021-03-01 22:07:39+00",24.9,30.9,,45.8,-951,570,74,1006.92,45,0
"2021-03-01 22:12:39+00",26.8,29.8,,45.7,-1019,632,58,1006.98,44.9,0
"2021-03-01 22:17:39+00",21.2,27.2,,45.4,-841,440,68,1006.88,44.7,0
"2021-03-01 22:22:39+00",23.6,26.6,,45.5,-932,507,46,1006.88,44.9,0
"2021-03-01 22:27:39+00",23.9,27.9,,45.2,-984,480,59,1007.03,44.8,0
"2021-03-01 22:32:39+00",23.2,27.2,,45.2,-910,480,43,1007.17,44.7,0
"2021-03-01 22:37:39+00",23.7,27.7,,45.1,-956,502,38,1007.36,44.4,0
"2021-03-01 22:42:39+00",20.4,23.4,,44.8,-845,366,54,1007.98,44,0
"2021-03-01 22:47:39+00",18.4,20.4,,44.6,-763,338,25,1008.04,43.7,0
"2021-03-01 22:52:39+00",17.3,20.3,,44.5,-716,348,42,1008.17,43.4,0
"2021-03-01 22:57:39+00",16.6,18.6,,44.3,-680,297,27,1008.43,43.2,0
"2021-03-01 23:02:39+00",19.1,23.1,,44.2,-798,346,46,1008.56,43,0
"2021-03-01 23:07:39+00",18.6,20.6,,44.2,-748,353,49,1008.74,43,0
"2021-03-01 23:12:39+00",16.5,17.5,,44.1,-693,326,55,1008.95,42.8,0
"2021-03-01 23:17:39+00",17.3,20.3,,44.1,-710,333,40,1009.11,42.7,0
"2021-03-01 23:22:39+00",18.7,23.7,,44.1,-776,399,42,1009.28,42.8,0
"2021-03-01 23:27:39+00",18.2,21.2,,44,-710,384,43,1009.39,42.8,0
"2021-03-01 23:32:39+00",20.2,23.2,,44.1,-791,459,37,1009.49,42.8,0
"2021-03-01 23:37:39+00",19.1,21.1,,44.2,-746,417,34,1009.49,42.8,0
"2021-03-01 23:42:39+00",17.3,20.3,,44.1,-711,364,29,1009.86,42.8,0
"2021-03-01 23:47:39+00",16.4,19.4,,44,-681,297,16,1009.86,42.6,0
"2021-03-01 23:52:39+00",15.3,18.3,,44,-605,324,32,1010.06,42.5,0
"2021-03-01 23:57:39+00",15.5,16.5,,43.7,-575,402,43,1010.17,42.4,0
